Zurück zum Katalog

MUOS 5

AktivMilitärMEO
NORAD 41622·PAYLOAD·🇺🇸 United States

Gestartet Jun 24, 2016 von Cape Canaveral Space Force Station

Loading…

Nächste Überflüge (nächste 24 Stunden)

TLE

AktuellSource: Space-Track

Epoche: Sep 14, 2026, 13:17 UTC

1 41622U 16041A   26257.55391080 -.00000170  00000-0  00000-0 0  9999
2 41622   2.0208 303.6874 0203708 260.7619 243.5146  1.00272668 37985

Verfolge MUOS 5 in Echtzeit mit AllMySat

Download on the App Store